TimeEDT,TemperatureF,Dew PointF,Humidity,Sea Level PressureIn,VisibilityMPH,Wind Direction,Wind SpeedMPH,Gust SpeedMPH,PrecipitationIn,Events,Conditions,WindDirDegrees,DateUTC
12:13 AM,59.0,57.2,94,30.03,2.5,South,6.9,-,0.00,Rain,Light Rain,180,2012-10-04 04:13:00
12:24 AM,59.0,57.2,94,30.03,4.0,South,6.9,-,0.01,,Overcast,170,2012-10-04 04:24:00
12:37 AM,59.0,57.2,94,30.02,2.0,South,9.2,-,0.01,Rain,Light Rain,180,2012-10-04 04:37:00
12:53 AM,59.0,57.0,93,30.02,2.5,South,8.1,-,0.03,Rain,Light Rain,180,2012-10-04 04:53:00
1:03 AM,59.0,57.2,94,30.02,3.0,South,8.1,-,0.01,Rain,Light Rain,180,2012-10-04 05:03:00
1:53 AM,60.1,57.0,90,30.02,4.0,SSW,10.4,-,0.04,,Overcast,200,2012-10-04 05:53:00
2:35 AM,60.8,57.2,88,30.02,4.0,SSW,10.4,-,N/A,,Overcast,210,2012-10-04 06:35:00
2:53 AM,60.1,57.0,90,30.02,4.0,SSW,10.4,-,0.00,Rain,Light Rain,210,2012-10-04 06:53:00
3:05 AM,60.8,57.2,88,30.02,2.5,SW,10.4,-,0.01,Rain,Rain,220,2012-10-04 07:05:00
3:24 AM,60.8,57.2,88,30.03,4.0,SSW,8.1,-,0.04,Rain,Light Rain,200,2012-10-04 07:24:00
3:31 AM,60.8,57.2,88,30.03,4.0,SSW,8.1,-,0.04,Rain,Light Rain,210,2012-10-04 07:31:00
3:53 AM,60.1,57.9,93,30.03,4.0,SW,9.2,-,0.05,Rain,Light Rain,220,2012-10-04 07:53:00
4:53 AM,60.1,57.9,93,30.04,2.5,SW,6.9,-,0.00,Rain,Light Rain,230,2012-10-04 08:53:00
5:53 AM,59.0,57.9,96,30.04,2.5,SW,6.9,-,0.04,Rain,Rain,220,2012-10-04 09:53:00
6:26 AM,59.0,57.2,94,30.04,2.5,SSW,5.8,-,0.01,Rain,Light Rain,210,2012-10-04 10:26:00
6:32 AM,59.0,57.2,94,30.04,3.0,SSW,5.8,-,0.01,Rain,Light Rain,200,2012-10-04 10:32:00
6:41 AM,59.0,57.2,94,30.04,2.5,SSW,6.9,-,0.01,Rain,Rain,210,2012-10-04 10:41:00
6:53 AM,59.0,57.0,93,30.05,2.0,SSW,8.1,-,0.03,Rain,Rain,200,2012-10-04 10:53:00
7:22 AM,59.0,57.2,94,30.05,3.0,SSW,9.2,-,0.02,Rain,Light Rain,210,2012-10-04 11:22:00
7:48 AM,59.0,55.4,88,30.04,3.0,SSW,9.2,-,0.03,,Overcast,200,2012-10-04 11:48:00
7:53 AM,59.0,55.9,90,30.05,3.0,SSW,10.4,-,0.03,,Mostly Cloudy,200,2012-10-04 11:53:00
8:09 AM,57.2,55.4,94,30.04,2.0,SSW,9.2,-,N/A,,Mostly Cloudy,200,2012-10-04 12:09:00
8:35 AM,57.2,55.4,94,30.05,2.5,SSW,8.1,-,N/A,,Mostly Cloudy,210,2012-10-04 12:35:00
8:53 AM,59.0,57.0,93,30.05,2.0,SSW,6.9,-,N/A,,Mostly Cloudy,210,2012-10-04 12:53:00
9:12 AM,59.0,57.2,94,30.05,2.0,SSW,10.4,-,N/A,,Mostly Cloudy,210,2012-10-04 13:12:00
9:44 AM,60.8,57.2,88,30.05,3.0,SSW,9.2,-,N/A,,Mostly Cloudy,210,2012-10-04 13:44:00
9:53 AM,61.0,57.9,90,30.06,3.0,SSW,10.4,-,N/A,,Mostly Cloudy,210,2012-10-04 13:53:00
10:11 AM,62.6,57.2,82,30.06,5.0,SSW,10.4,-,N/A,,Scattered Clouds,200,2012-10-04 14:11:00
10:53 AM,64.0,57.0,78,30.06,8.0,SW,11.5,-,N/A,,Scattered Clouds,220,2012-10-04 14:53:00
11:53 AM,69.1,55.9,63,30.05,10.0,SW,16.1,21.9,N/A,,Partly Cloudy,230,2012-10-04 15:53:00
12:53 PM,72.0,55.9,57,30.04,10.0,SSW,16.1,-,N/A,,Partly Cloudy,210,2012-10-04 16:53:00
1:53 PM,73.9,54.0,50,30.03,10.0,WSW,19.6,25.3,N/A,,Scattered Clouds,240,2012-10-04 17:53:00
2:53 PM,75.9,53.1,45,29.99,10.0,SSW,15.0,23.0,N/A,,Scattered Clouds,210,2012-10-04 18:53:00
3:53 PM,77.0,51.1,40,29.99,10.0,SSW,13.8,-,N/A,,Partly Cloudy,210,2012-10-04 19:53:00
4:53 PM,75.9,51.1,42,29.97,10.0,SSW,17.3,23.0,N/A,,Mostly Cloudy,200,2012-10-04 20:53:00
5:53 PM,72.0,55.0,55,29.97,7.0,SW,8.1,-,0.00,Rain,Light Rain,220,2012-10-04 21:53:00
6:53 PM,72.0,55.0,55,29.97,10.0,SW,13.8,21.9,0.00,Rain,Light Rain,230,2012-10-04 22:53:00
7:53 PM,68.0,57.9,70,29.99,10.0,West,15.0,21.9,0.00,,Overcast,260,2012-10-04 23:53:00
8:53 PM,64.9,55.9,73,30.00,10.0,West,10.4,-,0.00,,Overcast,260,2012-10-05 00:53:00
9:53 PM,63.0,53.1,70,30.01,10.0,SW,13.8,-,0.00,,Overcast,230,2012-10-05 01:53:00
10:53 PM,60.1,52.0,75,30.03,10.0,WSW,13.8,-,0.00,,Overcast,240,2012-10-05 02:53:00
11:53 PM,57.9,50.0,75,30.03,10.0,West,13.8,-,0.00,Rain,Light Rain,270,2012-10-05 03:53:00